Weather History for KMHV - March, 2013

Change the Weather History Date:

Monday, March 18, 2013

  Actual Average Record
Temperature  
Mean Temperature 60 °F -  
Max Temperature 75 °F 66 °F 85 °F (1972)
Min Temperature 46 °F 41 °F 29 °F (1982)
Degree Days  
Heating Degree Days 4    
Growing Degree Days 10 (Base 50)    
Moisture  
Dew Point 25 °F    
Average Humidity 27    
Maximum Humidity 43    
Minimum Humidity 13    
Precipitation  
Precipitation 0.00 in - - ()
Sea Level Pressure  
Sea Level Pressure 30.00 in    
Wind  
Wind Speed 19 mph (West)    
Max Wind Speed 43 mph    
Max Gust Speed 55 mph    
Visibility 10 miles    
Events      
Averages and records for this station are not official NWS values.
T = Trace of Precipitation, MM = Missing Value Source: NWS Daily Summary

Daily Weather History Graph

Daily Weather History Graph

Search for Another Location

Airport or City:

Trip Planner

Search our weather history database for the weather conditions in past years. The results will help you decide how hot, cold, wet, or windy it might be!

Date:

Astronomy

Mar. 18, 2013 Rise Set
Actual Time 6:58 AM PDT 7:02 PM PDT
Civil Twilight 6:33 AM PDT 7:28 PM PDT
Nautical Twilight 6:03 AM PDT 7:57 PM PDT
Astronomical Twilight 5:34 AM PDT 8:27 PM PDT
Moon 11:14 AM PDT (3/18) 12:53 AM PDT (3/18)
Length of Visible Light 12h 54m
Length of Day
12h 04m
Waxing Crescent, 41% of the Moon is Illuminated
Mar 18
Waxing Crescent
Mar 19
First Quarter
Mar 27
Full
Apr 2
Last Quarter
Apr 10
New

Hourly Weather History & Observations

Time (PDT) Temp. Windchill Dew Point Humidity Pressure Visibility Wind Dir Wind Speed Gust Speed Precip Events Conditions
12:15 AM 59.0 °F - 23.0 °F 25% 29.91 in 10.0 mi West 36.8 mph 47.2 mph N/A   Clear
12:35 AM 57.2 °F - 24.8 °F 29% 29.90 in 10.0 mi West 42.6 mph 50.6 mph N/A   Clear
12:55 AM 57.2 °F - 26.6 °F 31% 29.91 in 10.0 mi West 39.1 mph 49.5 mph N/A   Clear
1:15 AM 57.2 °F - 28.4 °F 33% 29.91 in 10.0 mi West 40.3 mph 47.2 mph N/A   Clear
1:35 AM 57.2 °F - 30.2 °F 36% 29.92 in 10.0 mi WNW 36.8 mph 51.8 mph N/A   Clear
1:55 AM 55.4 °F - 32.0 °F 41% 29.93 in 10.0 mi West 35.7 mph 51.8 mph N/A   Clear
2:15 AM 55.4 °F - 32.0 °F 41% 29.93 in 10.0 mi West 33.4 mph 55.2 mph N/A   Clear
2:35 AM 55.4 °F - 30.2 °F 38% 29.94 in 10.0 mi NW 25.3 mph 41.4 mph N/A   Clear
2:55 AM 57.2 °F - 26.6 °F 31% 29.96 in 10.0 mi NNW 12.7 mph 24.2 mph N/A   Clear
3:15 AM 57.2 °F - 28.4 °F 33% 29.95 in 10.0 mi NW 21.9 mph 33.4 mph N/A   Clear
3:35 AM 57.2 °F - 32.0 °F 38% 29.94 in 10.0 mi NW 23.0 mph 35.7 mph N/A   Unknown
3:55 AM 55.4 °F - 32.0 °F 41% 29.94 in 10.0 mi NW 23.0 mph 32.2 mph N/A   Clear
4:15 AM 59.0 °F - 24.8 °F 27% 29.96 in 10.0 mi North 3.5 mph 19.6 mph N/A   Clear
4:35 AM 57.2 °F - 23.0 °F 27% 29.96 in 10.0 mi Calm Calm - N/A   Clear
4:55 AM 53.6 °F - 23.0 °F 30% 29.97 in 10.0 mi ENE 4.6 mph - N/A   Clear
5:15 AM 50.0 °F - 23.0 °F 35% 29.97 in 10.0 mi NE 3.5 mph - N/A   Clear
5:35 AM 51.8 °F - 23.0 °F 33% 29.98 in 10.0 mi Calm Calm - N/A   Clear
5:55 AM 50.0 °F - 24.8 °F 37% 29.98 in 10.0 mi Calm Calm - N/A   Clear
6:15 AM 48.2 °F - 26.6 °F 43% 30.00 in 10.0 mi NNW 5.8 mph - N/A   Clear
6:35 AM 48.2 °F - 24.8 °F 40% 30.00 in 10.0 mi NNW 6.9 mph - N/A   Clear
6:55 AM 46.4 °F 44.3 °F 24.8 °F 43% 30.02 in 10.0 mi WNW 4.6 mph - N/A   Clear
7:15 AM 51.8 °F - 26.6 °F 38% 30.02 in 10.0 mi West 5.8 mph - N/A   Clear
7:35 AM 50.0 °F - 26.6 °F 40% 30.02 in 10.0 mi Calm Calm - N/A   Clear
7:55 AM 51.8 °F - 28.4 °F 41% 30.03 in 10.0 mi SW 8.1 mph - N/A   Clear
8:15 AM 55.4 °F - 30.2 °F 38% 30.03 in 10.0 mi Calm Calm - N/A   Clear
8:35 AM 57.2 °F - 28.4 °F 33% 30.04 in 10.0 mi South 3.5 mph - N/A   Clear
8:55 AM 60.8 °F - 28.4 °F 29% 30.05 in 10.0 mi Calm Calm - N/A   Clear
9:15 AM 62.6 °F - 26.6 °F 26% 30.06 in 10.0 mi Calm Calm - N/A   Clear
9:35 AM 64.4 °F - 24.8 °F 22% 30.06 in 10.0 mi Calm Calm - N/A   Clear
9:55 AM 64.4 °F - 19.4 °F 18% 30.07 in 10.0 mi Calm Calm - N/A   Clear
10:15 AM 66.2 °F - 21.2 °F 18% 30.07 in 10.0 mi Calm Calm - N/A   Clear
10:35 AM 66.2 °F - 21.2 °F 18% 30.07 in 10.0 mi Calm Calm - N/A   Clear
10:55 AM 66.2 °F - 17.6 °F 15% 30.07 in 10.0 mi SSE 3.5 mph - N/A   Clear
11:15 AM 68.0 °F - 21.2 °F 17% 30.07 in 10.0 mi ESE 4.6 mph - N/A   Clear
11:35 AM 68.0 °F - 17.6 °F 15% 30.06 in 10.0 mi Calm Calm - N/A   Clear
11:55 AM 68.0 °F - 17.6 °F 15% 30.06 in 10.0 mi SE 5.8 mph - N/A   Clear
12:15 PM 69.8 °F - 17.6 °F 14% 30.06 in 10.0 mi South 5.8 mph - N/A   Clear
12:35 PM 71.6 °F - 19.4 °F 14% 30.05 in 10.0 mi East 4.6 mph - N/A   Clear
12:55 PM 71.6 °F - 17.6 °F 13% 30.05 in 10.0 mi SSW 4.6 mph - N/A   Clear
1:15 PM 71.6 °F - 17.6 °F 13% 30.04 in 10.0 mi SE 6.9 mph - N/A   Clear
1:35 PM 71.6 °F - 17.6 °F 13% 30.03 in 10.0 mi Calm Calm - N/A   Clear
1:55 PM 71.6 °F - 17.6 °F 13% 30.02 in 10.0 mi Calm Calm - N/A   Clear
2:15 PM 75.2 °F - 24.8 °F 15% 30.01 in 10.0 mi WNW 13.8 mph 21.9 mph N/A   Clear
2:35 PM 75.2 °F - 21.2 °F 13% 30.00 in 10.0 mi WNW 17.3 mph 20.7 mph N/A   Clear
2:55 PM 73.4 °F - 23.0 °F 15% 30.00 in 10.0 mi WNW 19.6 mph - N/A   Clear
3:15 PM 71.6 °F - 23.0 °F 16% 29.99 in 10.0 mi WNW 21.9 mph - N/A   Clear
3:30 PM 71.6 °F - 23.0 °F 16% 29.98 in 10.0 mi West 24.2 mph 28.8 mph N/A   Clear
3:55 PM 71.6 °F - 26.6 °F 19% 29.99 in 10.0 mi West 21.9 mph 27.6 mph N/A   Clear
4:15 PM 71.6 °F - 23.0 °F 16% 29.99 in 10.0 mi WNW 20.7 mph 27.6 mph N/A   Clear
4:35 PM 69.8 °F - 21.2 °F 16% 29.99 in 10.0 mi West 25.3 mph 33.4 mph N/A   Clear
4:55 PM 68.0 °F - 24.8 °F 20% 29.98 in 10.0 mi West 25.3 mph 29.9 mph N/A   Partly Cloudy
5:15 PM 66.2 °F - 28.4 °F 24% 30.00 in 10.0 mi West 21.9 mph 29.9 mph N/A   Clear
5:35 PM 64.4 °F - 32.0 °F 30% 30.00 in 10.0 mi SSW 9.2 mph 19.6 mph N/A   Clear
5:55 PM 64.4 °F - 24.8 °F 22% 29.99 in 10.0 mi West 5.8 mph - N/A   Clear
6:15 PM 64.4 °F - 28.4 °F 26% 29.98 in 10.0 mi South 15.0 mph - N/A   Clear
6:35 PM 64.4 °F - 24.8 °F 22% 29.98 in 10.0 mi SSE 8.1 mph - N/A   Clear
6:55 PM 62.6 °F - 26.6 °F 26% 29.98 in 10.0 mi South 16.1 mph 23.0 mph N/A   Clear
7:15 PM 62.6 °F - 24.8 °F 24% 29.99 in 10.0 mi West 9.2 mph - N/A   Clear
7:35 PM 59.0 °F - 28.4 °F 31% 29.99 in 10.0 mi WSW 19.6 mph 32.2 mph N/A   Clear
7:55 PM 60.8 °F - 23.0 °F 23% 29.98 in 10.0 mi West 18.4 mph 29.9 mph N/A   Clear
8:15 PM 60.8 °F - 24.8 °F 25% 29.99 in 10.0 mi West 15.0 mph 24.2 mph N/A   Clear
8:35 PM 62.6 °F - 23.0 °F 22% 29.99 in 10.0 mi NW 13.8 mph 24.2 mph N/A   Clear
8:55 PM 60.8 °F - 26.6 °F 27% 30.00 in 10.0 mi West 23.0 mph 33.4 mph N/A   Clear
9:15 PM 59.0 °F - 28.4 °F 31% 30.02 in 10.0 mi SW 18.4 mph 32.2 mph N/A   Clear
9:35 PM 59.0 °F - 32.0 °F 36% 30.03 in 10.0 mi SW 18.4 mph 26.5 mph N/A   Clear
9:55 PM 59.0 °F - 30.2 °F 34% 30.03 in 10.0 mi South 17.3 mph 23.0 mph N/A   Clear
10:15 PM 59.0 °F - 28.4 °F 31% 30.02 in 10.0 mi South 15.0 mph 21.9 mph N/A   Clear
10:35 PM 59.0 °F - 28.4 °F 31% 30.01 in 10.0 mi South 17.3 mph 23.0 mph N/A   Clear
10:55 PM 59.0 °F - 23.0 °F 25% 30.02 in 10.0 mi WNW 8.1 mph - N/A   Clear
11:15 PM 59.0 °F - 26.6 °F 29% 30.02 in 10.0 mi South 13.8 mph 25.3 mph N/A   Clear
11:35 PM 59.0 °F - 24.8 °F 27% 30.02 in 10.0 mi SSW 10.4 mph 25.3 mph N/A   Clear
11:55 PM 59.0 °F - 24.8 °F 27% 30.01 in 10.0 mi South 16.1 mph 23.0 mph N/A   Clear